Flock 4g-32

operational
NORAD ID: 62643 Int'l Des: 2025-009 Owner: PLAN Country: US Constellation: planet
LEOCIRCULARRETROGRADESSO

About Flock 4g-32

Description loading...

Live Position

Loading 3D Globe...

Upcoming Passes

Altitude History

Altitude vs Time

uPlot chart will show altitude changes over time

Two-Line Element Set

1 62643U 25009AL 26063.14171727 .00201883 00000-0 33288-2 0 9992
2 62643 97.3921 147.9278 0002581 248.2669 111.8308 15.51564373 63039
Epoch: Mar 4, 2026 • Age: 9 hours

Current Status

Altitude 426.5 km
Velocity 7.65 km/s
Sub-Earth Point -41.94°S, 24.38°E
Launch Date Jan 14, 2025
Age 1.1 years
Type earth observation

Technical Details

Classification Payload
Mass 5.70 kg
Dry Mass 5.70 kg
Total Mass 5.70 kg
Length 0.30 m
Diameter 0.10 m
Span 0.30 m
Shape Box+2 pan
Manufacturer PLAN
Bus Type Cubesat 3U
Phase Status In Orbit
Owner/State PLAN/US

Large Constellations

Loading constellations...